Weather in Purpe

Russia / Yamalo-Nenets Autonomous Okrug     64°28′34″N   76°41′37″E
temp.,
°C
wind,
m/s
gust,
m/s
humid.,
%
clouds,
%
prec.,
mm/h
press.,
hPa
HPBL,
m
27 february, sat
sat2723:00−26sw339895 0.1 102436
02:00−25sw339894 0.1 102325
05:00−25w229994 0.1 102320
08:00−26nw229993 0.1 102319
11:00−24nnw229589 0.1 1023125
14:00−24nnw129391 0.0 1024176
17:00−29nw1210066 0.0 102519
20:00−31ne1110010 0.0 102519
28 february, sun
sun2823:00−32ssw1110030 0.0 102619
02:00−32sse1110037 0.0 102619
05:00−32s1210040 0.0 102719
08:00−30sse239852 0.0 102719
11:00−26sse339553 0.0 1027176
14:00−23s349385 0.0 1027260
17:00−27s339868 0.0 102719
20:00−28sse34970 0.0 102719
1 march, mon
mon123:00−29s34970 0.0 102719
02:00−29ssw34960 0.0 102619
05:00−30s34940 0.0 102619
08:00−29s34950 0.0 102525
11:00−25s45944 0.0 1025204
14:00−23s469361 0.0 1023239
17:00−26s459456 0.0 102332
20:00−26s569469 0.0 102255
2 march, tue
tue223:00−27s699371 0.0 102193
02:00−27s689366 0.0 102085
05:00−28s699358 0.0 102088
08:00−28s7119233 0.0 1019147
11:00−23s8119054 0.0 1020286
14:00−21s81287100 0.0 1019339
17:00−22sse71289100 0.0 1018235
20:00−23s71388100 0.0 1018213
3 march, wed
wed323:00−24s7138899 0.0 1018213
02:00−26s7129190 0.0 1017174
05:00−27s7129590 0.0 1017146
08:00−26s81394100 0.0 1017230
11:00−23s91392100 0.0 1017332
14:00−20s9129190 0.0 1016401
17:00−21sse8149392 0.0 1016277
20:00−22s8169489 0.0 1016272